Regional Weather Roundup
Issued by NWS

Home | Current Version | Previous Version | Text Only | Print | Product List | Glossary On
Versions: 1 2 3 4 5 6 7 8 9 10 11 12 13 14 15 16 17 18 19 20 21 22 23 24 25 26 27 28 29 30 31 32 33 34 35 36 37 38 39 40 41 42 43 44 45 46 47 48 49 50
000
ASUS43 KMPX 271301
RWRMN
WEATHER ROUNDUP FOR MINNESOTA
NATIONAL WEATHER SERVICE TWIN CITIES/CHANHASSEN MN
700 AM CST SAT DEC 27 2014


NOTE: "FAIR" INDICATES FEW OR NO CLOUDS BELOW 12,000 FEET WITH NO
SIGNIFICANT WEATHER AND/OR OBSTRUCTIONS TO VISIBILITY. N/A MEANS
CURRENT SKY AND/OR WEATHER CONDITIONS ARE NOT AVAILABLE.

MNZ060>063-068>070-271400-
   Twin Cities Metro

CITY           SKY/WX    TMP DP  RH WIND       PRES   REMARKS
TWIN CITIES    LGT SNOW  23  20  88 NW16      30.03R VSB 1   WCI  10
ST PAUL        LGT SNOW  24  21  88 NW16G24   30.04R FOG     WCI  11
CRYSTAL        LGT SNOW  24  20  84 NW12      30.03S FOG     WCI  13
BLAINE         LGT SNOW  25  25 100 NW14      30.03S WCI  13
LAKEVILLE      LGT SNOW  21  19  93 NW15      30.01R WCI   8
EDEN PRAIRIE   LGT SNOW  23  19  85 NW14      30.02R FOG     WCI  11
SOUTH ST PAUL  LGT SNOW  25  22  89 NW12G20   30.02R WCI  14
LAKE ELMO      LGT SNOW  25  23  93 NW14      30.01S WCI  13
$$
MNZ001>005-007-008-013>017-022>024-027-028-271400-
   Northwest Minnesota

CITY           SKY/WX    TMP DP  RH WIND       PRES   REMARKS
BEMIDJI        CLOUDY     8   4  87 W6        30.07F WCI  -3
HALLOCK        CLOUDY     3   1  92 S10       30.10F WCI -12
ROSEAU         FLURRIES   9   3  78 SW7       30.09S WCI  -3
WARROAD        CLOUDY     9   3  78 SW5       30.08F WCI   0
THIEF RVR FALL CLOUDY     5   3  92 SW6       30.10F WCI  -6
CROOKSTON      CLOUDY     5   1  85 SW5       30.14F WCI  -4
FOSSTON        LGT SNOW   3   1  92 SW3       30.10F
DETROIT LAKES  LGT SNOW   9   5  85 NW3       30.12S
MOORHEAD       CLEAR      3   3 100 CALM      30.17S
PARK RAPIDS    MOCLDY    12   8  84 NW9       30.07S WCI   0
MAHNOMEN       FLURRIES   6   3  89 SW3       30.11S
$$
MNZ006-009>011-018-025>026-271400-
   North Central Minnesota

CITY           SKY/WX    TMP DP  RH WIND       PRES   REMARKS
BAUDETTE       CLOUDY     9   4  80 CALM      30.07F
FLAG ISLAND    CLOUDY     9   3  78 SW8       30.06F WCI  -4
INTL FALLS     CLOUDY     9   4  80 W7        30.07F WCI  -2
WASKISH        CLOUDY    12   7  79 CALM      30.08S
BIG FORK       FLURRIES  14   9  79 CALM      30.06S
LONGVILLE      FLURRIES  16  10  79 W6        30.07S WCI   7
GRAND RAPIDS   CLOUDY    18  10  73 NW10      30.04S WCI   6
CRANE LAKE     FLURRIES  12   7  79 W3        30.08S
ORR            FLURRIES  12   7  79 CALM      30.03S
COOK           LGT SNOW  14  10  85 NW3       30.05S
WALKER         FLURRIES  12   8  81 NW3       30.08S
$$
MNZ012-019>021-037-271400-
   Northeast Minnesota

CITY           SKY/WX    TMP DP  RH WIND       PRES   REMARKS
DULUTH         CLOUDY    20  15  81 N8        30.00R WCI  10
ELY            FLURRIES  12   9  85 NW5       30.02S WCI   4
HIBBING        CLOUDY    17   9  70 NW12      30.04S WCI   4
EVELETH        CLOUDY    18  12  79 NW6       30.04S WCI   9
DULUTH HARBOR  CLOUDY    25  18  74 NW8       30.06R WCI  16
TWO HARBORS    CLOUDY    23  18  80 CALM      30.00R
GRAND MARAIS     N/A     24  16  71 N10G22    30.01S WCI  14
G MARAIS ARPRT CLOUDY    16  12  86 N6        29.95S WCI   7
$$
MNZ029>031-032-039>041-046>048-054>057-064-271400-
   West Central Minnesota

CITY           SKY/WX    TMP DP  RH WIND       PRES   REMARKS
FERGUS FALLS   CLEAR      5   0  78 NW7       30.18S WCI  -7
WHEATON        CLEAR      5   1  85 W6        30.18F WCI  -6
MORRIS         PTCLDY     9   5  85 NW13      30.13S WCI  -7
ALEXANDRIA     PTCLDY    11   8  88 NW9       30.10S WCI  -2
ELBOW LAKE     FAIR       6   3  87 NW9       30.13F WCI  -8
WADENA         MOCLDY    10   9  92 W6        30.09S WCI   1
GLENWOOD       MOCLDY    12   9  85 NW12      30.10S WCI  -2
APPLETON       PTCLDY    10   7  85 NW9       30.15S WCI  -2
BENSON         CLOUDY    10   7  85 N15       30.13S WCI  -6
ORTONVILLE     CLEAR      9   3  78 NW8       30.15S WCI  -4
MADISON        PTCLDY    14   7  73 NW10      30.15S WCI   1
WILLMAR        CLOUDY    18  12  79 NW16      30.11S WCI   3
$$
MNZ033>034-036-042>043-049>051-058-059-271400-
   Central Minnesota

CITY           SKY/WX    TMP DP  RH WIND       PRES   REMARKS
ST CLOUD       CLOUDY    24  16  71 N12       30.06S WCI  13
SAUK CENTRE    CLOUDY    18  14  86 NW12      30.08F WCI   5
PAYNESVILLE    CLOUDY    17  15  91 W12G20    30.08F WCI   4
AITKIN         CLOUDY    21  16  79 NW7       30.05R WCI  13
PINE RIVER     CLOUDY    18  12  79 NW7       30.10S WCI   8
BRAINERD       CLOUDY    20  13  74 NW9       30.07R WCI   9
STAPLES        CLOUDY    16  10  79 W8        30.08S WCI   5
LONG PRAIRIE   CLOUDY    18  14  86 W9        30.08S WCI   6
LITTLE FALLS   CLOUDY    21  16  79 NW7       30.07S WCI  13
LITCHFIELD     CLOUDY    23  21  93 NW15      30.07S WCI  10
BUFFALO        LGT SNOW  22  19  89 NW9       30.06F WCI  12
MAPLE LAKE     LGT SNOW  23  21  92 NW9       30.06F WCI  13
$$
MNZ037-044-045-052-053-271400-
   East Central Minnesota

CITY           SKY/WX    TMP DP  RH WIND       PRES   REMARKS
PRINCETON      LGT SNOW  23  19  86 NW8       30.05S WCI  14
MORA           CLOUDY    21  16  79 N9        30.07R WCI  11
CAMBRIDGE      LGT SNOW  25  18  74 NW9       30.03S WCI  15
RUSH CITY      CLOUDY    22  20  91 NW5       30.04S WCI  16
MOOSE LAKE     CLOUDY    21  14  73 N8        30.04R WCI  12
HINCKLEY       CLOUDY    23  19  86 CALM      30.05R
CLOQUET        CLOUDY    18  12  79 NW9       30.03R WCI   6
MCGREGOR       CLOUDY    19  16  86 N7        30.06R WCI  10
$$
MNZ071>073-080-081-089-090-097-098-271400-
   Southwest Minnesota

CITY           SKY/WX    TMP DP  RH WIND       PRES   REMARKS
MONTEVIDEO     PTCLDY    12  10  92 N10       30.14S WCI  -1
GRANITE FALLS  CLOUDY    13  10  87 NW14      30.15R WCI  -2
CANBY          MOCLDY    10   7  87 NW5       30.15S WCI   2
MARSHALL       PTCLDY    12   3  67 NW17      30.13R WCI  -5
REDWOOD FALLS  CLOUDY    17  13  84 NW13G22   30.11R WCI   4
OLIVIA         CLOUDY    18  14  86 NW16      30.10R WCI   3
PIPESTONE      CLOUDY    16  12  86 NW8       30.11R WCI   5
WINDOM         FLURRIES  16  14  93 NW14      30.10R WCI   1
WORTHINGTON    MOCLDY    16 -27  13 NW14      30.12R WCI   1
JACKSON        CLOUDY    19  14  79 NW14      30.09R WCI   6
TRACY          MOCLDY    14  11  87 NW14      30.13R WCI  -1
SLAYTON        FLURRIES  13  10  87 NW10      30.11R WCI   0
$$
MNZ065>067-074>077-082>085-091>093-271400-
   South Central Minnesota

CITY           SKY/WX    TMP DP  RH WIND       PRES   REMARKS
MANKATO        CLOUDY    21  18  86 NW13G23   30.06R WCI   9
NEW ULM        CLOUDY    19  18  93 NW14      30.08R WCI   6
ST JAMES       LGT SNOW  21  18  86 NW16G24   30.10R WCI   7
FAIRMONT       MOCLDY    21  16  79 NW17      30.07R WCI   7
GLENCOE        LGT SNOW  23  21  93 NW9       30.06R WCI  13
FARIBAULT      LGT SNOW  25  21  86 NW14      30.02R WCI  13
OWATONNA       LGT SNOW  23  21  93 NW13      30.01R WCI  11
ALBERT LEA     CLOUDY    25  21  86 NW14G23   29.99R WCI  13
$$
MNZ078>079-086>088-094>096-271400-
   Southeast Minnesota

CITY           SKY/WX    TMP DP  RH WIND       PRES   REMARKS
ROCHESTER      FLURRIES  25  22  88 NW20      29.94R WCI  11
RED WING       LGT SNOW  27  25  93 N8G17     29.96S WCI  18
STANTON        LGT SNOW  26  23  88 NW17      29.99R WCI  13
DODGE CENTER   LGT SNOW  25  23  93 NW18      29.96R WCI  11
WINONA         CLOUDY    32  32 100 NW8       29.91R WCI  25
AUSTIN         LGT SNOW  25  23  93 NW13G23   29.97R WCI  13
PRESTON        CLOUDY    28  26  93 NW13      29.92R WCI  17
$$
ABBREVIATIONS USED IN REMARKS
   TC - TEMPERATURES IN CELSIUS
  WCI - WIND CHILL INDEX
   HX - HEAT INDEX
  VSB - VISIBILITY
$$



USA.gov is the U.S. government's official web portal to all federal, state and local government web resources and services.